DateTimeUTC,F1_A11,F1_S11,BsB_S11,BsG_S11,BsR_S11,BbsB_S11,BbsG_S11,BbsR_S11,BaB_A11,BaG_A11,BaR_A11,Tu_S11,T_S11,Uu_S11,U_S11,P_S11,T1_A11
2021-04-05T14:00:00Z,00000200,21000000,,,,,,,0000.01,0000.13,-000.01,16.1,23.3,,00.0,0661.9,30.9
2021-04-05T14:01:00Z,00000200,21000000,,,,,,,-000.07,0000.28,-000.02,16.0,23.3,,00.0,0661.9,30.9
2021-04-05T14:02:00Z,00000200,21000000,,,,,,,0000.05,-000.23,0000.57,16.0,23.3,,00.0,0661.9,30.9
2021-04-05T14:03:00Z,00000200,61000000,,,,,,,0000.66,0000.65,-000.13,16.0,23.3,,00.0,0661.9,30.9
2021-04-05T14:04:00Z,00000200,41000000,0001.92,0001.16,0000.64,0000.14,0000.08,0000.31,0000.69,0000.61,0000.79,16.1,23.1,,00.0,0662.7,30.9
2021-04-05T14:05:00Z,00000200,01000000,0001.33,0000.96,0000.58,0000.44,0000.14,0000.16,0000.70,0000.60,0000.26,16.1,23.0,,00.0,0662.8,30.9
2021-04-05T14:06:00Z,00000200,01000000,0001.52,0001.13,0000.50,0000.05,0000.23,0000.06,0000.41,0000.46,0000.15,16.2,23.0,,00.0,0662.8,30.9
2021-04-05T14:07:00Z,00000200,01000000,0001.60,0001.17,0000.59,0000.13,0000.10,0000.28,0000.64,0000.60,0000.58,16.2,23.0,,00.0,0662.8,30.9
2021-04-05T14:08:00Z,00000200,01000000,0001.81,0001.44,0000.67,0000.37,0000.33,0000.04,0000.88,0000.70,0000.58,16.1,23.0,,00.0,0662.8,30.9
2021-04-05T14:09:00Z,00000200,01000000,0001.65,0001.35,0000.63,0000.41,0000.12,0000.34,0000.32,0000.54,0000.19,16.1,23.0,,00.0,0662.8,30.9
2021-04-05T14:10:00Z,00000200,01000000,0000.96,0001.29,0000.65,0000.34,0000.27,0000.01,0000.69,0000.20,0000.47,16.1,23.0,,00.0,0662.8,30.9
2021-04-05T14:11:00Z,00000200,01000000,0001.53,0001.24,0000.48,0000.04,0000.29,-000.01,0000.68,0000.88,0000.19,16.1,22.9,,00.0,0662.8,30.9
2021-04-05T14:12:00Z,00000200,01000000,0002.18,0001.34,0000.37,0000.02,0000.36,0000.12,0000.80,0000.83,0000.68,16.1,22.9,,00.0,0662.8,30.9
2021-04-05T14:13:00Z,00000200,01000000,0002.16,0001.34,0000.90,-000.33,0000.04,0000.22,0000.72,0000.68,0000.68,16.1,23.0,,00.0,0662.8,30.9
2021-04-05T14:14:00Z,00000200,01000000,0002.32,0001.31,0000.77,0000.15,0000.23,-000.00,0000.90,0000.94,0000.44,16.2,23.0,,00.0,0662.9,30.9
2021-04-05T14:15:00Z,00000200,01000000,0002.17,0001.15,0000.67,0000.80,-000.04,0000.16,0000.64,0000.25,0000.55,16.2,23.0,,00.0,0662.9,30.9
2021-04-05T14:16:00Z,00000200,01000000,0001.72,0001.27,0000.53,-000.40,0000.17,-000.01,0000.76,0000.73,0000.14,16.2,23.0,,00.0,0662.9,30.9
2021-04-05T14:17:00Z,00000200,01000000,0001.97,0001.37,0000.72,0000.48,0000.14,0000.20,0000.70,0000.61,0000.43,16.2,23.0,,00.0,0662.9,30.9
2021-04-05T14:18:00Z,00000200,01000000,0001.81,0001.50,0000.65,0000.39,0000.23,0000.57,0000.46,0000.61,0000.68,16.3,23.0,,00.0,0662.9,30.9
2021-04-05T14:19:00Z,00000200,01000000,0001.98,0001.52,0000.83,0000.45,0000.36,0000.37,0000.57,0000.81,0000.74,16.3,23.0,,00.0,0662.9,30.9
2021-04-05T14:20:00Z,00000200,01000000,0001.78,0001.24,0000.88,0000.96,0000.18,0000.13,0000.96,0000.45,0000.25,16.3,23.0,,00.0,0662.9,30.9
2021-04-05T14:21:00Z,00000200,01000000,0002.23,0001.40,0000.58,0000.18,0000.33,0000.09,0000.81,0000.49,0000.86,16.3,23.0,,00.0,0662.9,30.9
2021-04-05T14:22:00Z,00000200,01000000,0001.93,0001.23,0000.78,0000.39,0000.22,0000.14,0001.16,0001.10,0000.40,16.2,23.0,,00.0,0662.9,30.9
2021-04-05T14:23:00Z,00000200,01000000,0002.17,0001.36,0000.69,0000.34,0000.13,0000.13,0000.77,0000.82,0000.83,16.2,23.0,,00.0,0662.9,30.9
2021-04-05T14:24:00Z,00000200,01000000,0002.23,0001.27,0000.74,0000.32,0000.39,0000.22,0000.52,0001.07,0000.16,16.2,23.0,,00.0,0662.9,30.9
2021-04-05T14:25:00Z,00000200,01000000,0001.83,0001.52,0000.60,0000.21,0000.38,0000.05,0001.18,0000.60,0000.91,16.2,23.0,,00.0,0662.9,30.9
2021-04-05T14:26:00Z,00000200,01000000,0002.28,0001.36,0000.81,0000.09,0000.32,0000.08,0000.47,0000.37,0000.08,16.2,23.0,,00.0,0662.9,30.9
2021-04-05T14:27:00Z,00000200,01000000,0001.86,0001.45,0000.93,0000.59,0000.35,0000.19,0000.64,0000.82,0000.77,16.2,22.9,,00.0,0663.0,30.9
2021-04-05T14:28:00Z,00000200,01000000,0001.77,0001.43,0000.61,0000.44,0000.17,0000.06,0000.90,0000.58,0000.41,16.2,22.9,,00.0,0663.0,30.9
2021-04-05T14:29:00Z,00000200,01000000,0001.61,0001.39,0000.84,0000.15,0000.14,0000.01,0000.91,0000.79,0000.74,16.3,23.0,,00.0,0663.0,30.9
2021-04-05T14:30:00Z,00000200,01000000,0002.46,0001.36,0000.49,0000.59,0000.22,0000.14,0000.95,0000.88,0000.52,16.4,23.0,,00.0,0663.0,30.9
2021-04-05T14:31:00Z,00000200,01000000,0001.96,0001.60,0000.78,-000.07,0000.30,0000.07,0000.57,0000.27,0000.29,16.5,23.1,,00.0,0663.1,31.0
2021-04-05T14:32:00Z,00000200,01000000,0002.07,0001.34,0000.89,0000.20,0000.21,-000.10,0000.61,0000.97,0000.44,16.6,23.1,,00.0,0663.1,31.0
2021-04-05T14:33:00Z,00000200,01000000,0001.81,0001.29,0000.46,0000.29,0000.34,0000.20,0000.48,0000.27,0000.64,16.6,23.2,,00.0,0663.2,31.0
2021-04-05T14:34:00Z,00000200,01000000,0001.92,0001.62,0000.58,0000.62,-000.00,0000.25,0000.62,0000.63,0000.43,16.7,23.2,,00.0,0663.2,31.0
2021-04-05T14:35:00Z,00000200,01000000,0002.01,0001.30,0000.83,0000.61,0000.21,0000.07,0000.65,0000.87,0000.44,16.7,23.2,,00.0,0663.2,31.0
2021-04-05T14:36:00Z,00000200,01000000,0001.38,0001.48,0000.87,0000.36,0000.02,0000.08,0000.08,0000.02,0000.18,16.7,23.2,,00.0,0663.3,31.0
2021-04-05T14:37:00Z,00000200,01000000,0001.69,0001.32,0000.68,0000.22,0000.36,-000.03,0000.55,0000.20,0000.03,16.6,23.2,,00.0,0663.3,31.0
2021-04-05T14:38:00Z,00000200,01000000,0002.32,0001.17,0000.80,0000.17,0000.33,0000.01,0000.18,0000.05,0000.11,16.6,23.2,,00.0,0663.3,30.9
2021-04-05T14:39:00Z,00000200,01000000,0002.28,0001.58,0000.95,0000.14,0000.10,0000.12,0000.08,0000.32,0000.13,16.6,23.2,,00.0,0663.3,30.9
2021-04-05T14:40:00Z,00000200,01000000,0002.05,0001.62,0000.87,0000.48,0000.31,0000.20,0000.54,0000.38,0000.48,16.6,23.2,,00.0,0663.3,30.9
2021-04-05T14:41:00Z,00000200,01000000,0001.58,0001.34,0000.54,0000.50,-000.04,-000.01,0000.55,0000.84,0000.73,16.5,23.2,,00.0,0663.4,30.9
2021-04-05T14:42:00Z,00000200,01000000,0002.54,0001.63,0000.62,0000.55,0000.32,0000.23,0000.66,0000.57,0000.17,16.5,23.2,,00.0,0663.4,30.9
2021-04-05T14:43:00Z,00000200,01000000,0001.99,0001.52,0000.64,0000.26,0000.14,0000.10,0000.58,0000.49,0000.43,16.5,23.2,,00.0,0663.4,30.9
2021-04-05T14:44:00Z,00000200,01000000,0002.60,0001.46,0000.88,0000.27,0000.20,0000.32,0000.67,0000.55,0000.74,16.6,23.2,,00.0,0663.4,30.9
2021-04-05T14:45:00Z,00000200,01000000,0001.89,0001.68,0000.63,0000.53,0000.17,0000.18,0000.79,0000.46,0000.47,16.7,23.2,,00.0,0663.4,31.0
2021-04-05T14:46:00Z,00000200,01000000,0002.03,0001.46,0000.65,0000.59,0000.08,0000.04,0000.82,0001.07,0000.47,16.8,23.3,,00.0,0663.4,31.0
2021-04-05T14:47:00Z,00000200,01000000,0002.09,0001.86,0000.78,0000.74,0000.03,0000.20,0000.88,0001.03,0000.79,16.8,23.3,,00.0,0663.4,31.0
2021-04-05T14:48:00Z,00000200,01000000,0001.55,0001.72,0000.68,0000.12,0000.14,0000.33,0001.03,0000.48,0000.35,16.9,23.3,,00.0,0663.4,31.0
2021-04-05T14:49:00Z,00000200,01000000,0001.63,0001.63,0000.73,0000.63,0000.10,0000.27,0000.94,0001.48,0000.82,16.9,23.4,,00.0,0663.4,31.0
2021-04-05T14:50:00Z,00000200,01000000,0002.25,0001.31,0000.78,-000.25,0000.39,0000.30,0001.09,0000.67,0001.14,16.9,23.4,,00.0,0663.5,31.0
2021-04-05T14:51:00Z,00000200,01000000,0001.96,0001.35,0000.52,0000.37,0000.18,0000.21,0000.68,0000.39,-000.25,16.8,23.4,,00.0,0663.5,31.0
2021-04-05T14:52:00Z,00000200,01000000,0001.64,0001.32,0000.88,0000.43,0000.25,0000.33,0000.40,0000.65,0000.67,16.8,23.4,,00.0,0663.5,31.0
2021-04-05T14:53:00Z,00000200,01000000,0002.47,0001.59,0000.90,0000.31,0000.06,0000.27,0000.46,0000.42,0000.34,16.8,23.4,,00.0,0663.6,31.0
2021-04-05T14:54:00Z,00000200,01000000,0001.42,0001.50,0000.89,0000.33,0000.27,0000.03,0000.66,0000.18,0000.38,16.7,23.4,,00.0,0663.6,30.9
2021-04-05T14:55:00Z,00000200,01000000,0002.16,0001.60,0000.77,0000.44,0000.36,0000.20,-000.09,0000.32,-000.21,16.7,23.4,,00.0,0663.6,30.9
2021-04-05T14:56:00Z,00000200,01000000,0002.01,0001.53,0000.81,-000.07,0000.30,0000.30,0000.03,-000.26,0000.02,16.7,23.4,,00.0,0663.6,30.9
2021-04-05T14:57:00Z,00000200,41000000,,,,,,,0000.43,0000.04,0000.55,16.8,23.4,,00.0,0663.6,30.9
2021-04-05T14:58:00Z,00000200,61000000,,,,,,,-000.69,-000.02,-000.47,16.5,23.5,,00.0,0662.6,30.9
2021-04-05T14:59:00Z,00000200,21000000,,,,,,,0000.03,0000.09,0000.46,16.5,23.6,,00.0,0662.6,30.9
